This is the latest recevied weather packets stored in our database for station/object N7CW. If no packets are shown the sender has not sent any weather packets the latest 10 day(s).
| Time | Temp. | Humidity | Pressure | Rain* | Wind** | Luminosity | Snow |
|---|---|---|---|---|---|---|---|
| 1777644810 | 11.67° C | 31% | 1015.8 hPa | 0 mm | - | 155 W/m² | - |
| 1777644508 | 11.11° C | 33% | 1015.9 hPa | 0 mm | - | 138 W/m² | - |
| 1777644204 | 11.67° C | 31% | 1015.8 hPa | 0 mm | - | 122 W/m² | - |
| 1777643900 | 10° C | 31% | 1015.7 hPa | 0 mm | - | 107 W/m² | - |
| 1777643598 | 8.89° C | 37% | 1015.3 hPa | 0 mm | - | 94 W/m² | - |
| 1777643295 | 9.44° C | 37% | 1015.3 hPa | 0 mm | - | 81 W/m² | - |
| 1777642991 | 8.33° C | 36% | 1015.3 hPa | 0 mm | - | 70 W/m² | - |
| 1777642682 | 7.78° C | 35% | 1015.4 hPa | 0 mm | - | 59 W/m² | - |
| 1777642379 | 7.22° C | 37% | 1015.4 hPa | 0 mm | - | 49 W/m² | - |
| 1777642076 | 7.22° C | 38% | 1015.2 hPa | 0 mm | - | 39 W/m² | - |
| 1777641772 | 6.11° C | 37% | 1015.1 hPa | 0 mm | - | 31 W/m² | - |
| 1777641471 | 5.56° C | 39% | 1015.1 hPa | 0 mm | - | 27 W/m² | - |
| 1777641167 | 5.56° C | 38% | 1014.8 hPa | 0 mm | - | 24 W/m² | - |
| 1777640863 | 6.11° C | 39% | 1015.1 hPa | 0 mm | - | 20 W/m² | - |
| 1777640561 | 6.11° C | 37% | 1014.9 hPa | 0 mm | - | 17 W/m² | - |
| 1777640257 | 5.56° C | 38% | 1014.6 hPa | 0 mm | - | 13 W/m² | - |
| 1777639953 | 6.11° C | 37% | 1014.7 hPa | 0 mm | - | 10 W/m² | - |
| 1777639651 | 5.56° C | 37% | 1014.8 hPa | 0 mm | - | 7 W/m² | - |
| 1777639348 | 5° C | 39% | 1014.7 hPa | 0 mm | - | 4 W/m² | - |
| 1777639043 | 5.56° C | 38% | 1014.7 hPa | 0 mm | - | 2 W/m² | - |
| 1777638740 | 5.56° C | 38% | 1014.5 hPa | 0 mm | - | 1 W/m² | - |
| 1777638436 | 5.56° C | 38% | 1014.7 hPa | 0 mm | - | 0 W/m² | - |
| 1777638134 | 5° C | 39% | 1014.5 hPa | 0 mm | - | 0 W/m² | - |
| 1777637829 | 5° C | 39% | 1014.5 hPa | 0 mm | - | 0 W/m² | - |
| 1777637526 | 6.11° C | 37% | 1014.5 hPa | 0 mm | - | 0 W/m² | - |
* Rain latest hour (hover to see other rain measurements)
** Current wind speed in m/s (hover to see current wind gust speed)